Joplin, MO

5:38 PM CST on November 14, 2019 (GMT -0600)
Joplin Regional

Weather History for KJLN - September, 2019

Change the Weather History Date:

Sunday, September 22, 2019

  Actual Average Record
Temperature  
Mean Temperature 74 °F 68 °F  
Max Temperature 79 °F 80 °F 95 °F (1956)
Min Temperature 68 °F 57 °F 33 °F (1995)
Degree Days  
Heating Degree Days 0 2  
Month to date heating degree days 0 15  
Since 1 July heating degree days 0 16  
Cooling Degree Days 8 5  
Month to date cooling degree days 320 181  
Year to date cooling degree days 1571 1608  
Growing Degree Days 24 (Base 50)    
Moisture  
Dew Point 70 °F    
Average Humidity 88    
Maximum Humidity 97    
Minimum Humidity 73    
Precipitation  
Precipitation 1.34 in 0.17 in 4.15 in (1962)
Month to date precipitation 2.13 3.67  
Year to date precipitation 51.02 34.64  
Sea Level Pressure  
Sea Level Pressure 29.95 in    
Wind  
Wind Speed 12 mph ()    
Max Wind Speed 25 mph    
Max Gust Speed 37 mph    
Visibility 8.6 miles    
Events Rain    
T = Trace of Precipitation, MM = Missing Value Source: Averaged Metar Reports

Daily Weather History Graph

Daily Weather History Graph

Search for Another Location

Airport or City:

Astronomy

Sep. 22, 2019 Rise Set
Actual Time 7:05 AM CDT 7:15 PM CDT
Civil Twilight 6:39 AM CDT 7:41 PM CDT
Nautical Twilight 6:09 AM CDT 8:11 PM CDT
Astronomical Twilight 5:38 AM CDT 8:42 PM CDT
Moon 12:04 AM CDT (9/22) 3:02 PM CDT (9/22)
Length of Visible Light 13h 01m
Length of Day
12h 09m
Last Quarter, 44% of the Moon is Illuminated
Sep 22
Last Quarter
Sep 28
New
Oct 5
First Quarter
Oct 13
Full
Oct 21
Last Quarter

Hourly Weather History & Observations

Time (CDT) Temp. Dew Point Humidity Pressure Visibility Wind Dir Wind Speed Gust Speed Precip Events Conditions
12:53 AM 75.9 °F 66.9 °F 74% 29.95 in 10.0 mi South 12.7 mph - N/A   Clear
1:53 AM 75.9 °F 66.9 °F 74% 29.95 in 10.0 mi South 13.8 mph - N/A   Clear
3:53 AM 75.0 °F 66.0 °F 73% 29.93 in 10.0 mi South 12.7 mph - N/A   Clear
4:53 AM 75.0 °F 66.9 °F 76% 29.91 in 10.0 mi South 16.1 mph - N/A   Clear
5:53 AM 75.9 °F 66.9 °F 74% 29.91 in 10.0 mi South 18.4 mph 26.5 mph N/A   Clear
7:53 AM 73.9 °F 69.1 °F 85% 29.91 in 10.0 mi South 17.3 mph 29.9 mph 0.01 in Rain Light Rain
8:53 AM 73.0 °F 69.1 °F 87% 29.94 in 5.0 mi SSW 15.0 mph - 0.02 in Rain Rain
9:32 AM 72.0 °F 70.0 °F 93% 29.98 in 1.0 mi SSW 15.0 mph - 0.20 in Rain Heavy Rain
9:53 AM 71.1 °F 70.0 °F 96% 29.95 in 2.0 mi South 17.3 mph - 0.47 in Rain Rain
10:53 AM 72.0 °F 70.0 °F 93% 29.95 in 2.5 mi South 17.3 mph 25.3 mph 0.36 in Rain Rain
11:53 AM 71.1 °F 70.0 °F 96% 29.94 in 3.0 mi South 16.1 mph - 0.40 in Rain Light Rain
12:26 PM 72.0 °F 70.0 °F 93% 29.96 in 10.0 mi South 12.7 mph - 0.04 in   Overcast
12:53 PM 72.0 °F 70.0 °F 93% 29.93 in 10.0 mi South 16.1 mph 25.3 mph 0.04 in   Overcast
1:53 PM 73.9 °F 71.1 °F 91% 29.91 in 10.0 mi South 19.6 mph 26.5 mph 0.00 in   Mostly Cloudy
2:21 PM 75.0 °F 72.0 °F 90% 29.93 in 10.0 mi SSW 13.8 mph - N/A   Overcast
2:53 PM 75.0 °F 71.1 °F 87% 29.90 in 10.0 mi SSW 17.3 mph 28.8 mph N/A   Overcast
3:53 PM 75.9 °F 72.0 °F 87% 29.90 in 10.0 mi SSW 11.5 mph - 0.01 in   Mostly Cloudy
4:38 PM 78.1 °F 72.0 °F 81% 29.93 in 10.0 mi SSW 18.4 mph 26.5 mph N/A   Mostly Cloudy
4:53 PM 78.1 °F 72.0 °F 81% 29.89 in 10.0 mi South 20.7 mph 27.6 mph N/A   Mostly Cloudy
5:53 PM 78.1 °F 71.1 °F 79% 29.89 in 10.0 mi SSW 21.9 mph 29.9 mph N/A   Partly Cloudy
7:53 PM 73.9 °F 71.1 °F 91% 29.93 in 10.0 mi South 8.1 mph - N/A   Partly Cloudy
8:53 PM 73.9 °F 71.1 °F 91% 29.95 in 10.0 mi South 5.8 mph - N/A   Partly Cloudy
9:53 PM 73.9 °F 72.0 °F 93% 29.96 in 10.0 mi South 6.9 mph - 0.01 in Rain Light Rain
10:04 PM 73.9 °F 72.0 °F 93% 30.00 in 5.0 mi WNW 12.7 mph - 0.02 in Rain Light Rain
10:08 PM 73.4 °F 71.6 °F 94% 30.01 in 9.0 mi NW 12.7 mph - N/A Rain Light Rain
10:14 PM 73.0 °F 71.1 °F 93% 30.01 in 10.0 mi NNW 10.4 mph - 0.02 in Rain Light Rain
10:53 PM 72.0 °F 71.1 °F 97% 30.00 in 10.0 mi NNW 3.5 mph - 0.02 in   Overcast
11:04 PM 72.0 °F 70.0 °F 93% 30.03 in 10.0 mi NNW 6.9 mph - N/A   Overcast
11:21 PM 71.1 °F 70.0 °F 96% 30.02 in 10.0 mi North 4.6 mph - N/A   Mostly Cloudy
11:49 PM 71.6 °F 69.8 °F 94% 30.04 in 10.0 mi North 3.5 mph - N/A   Overcast
11:53 PM 71.1 °F 69.1 °F 93% 30.01 in 10.0 mi North 9.2 mph - N/A   Overcast